PROFILE

 METAR AND TAF INFORMATION
ADDS - METARS form results

(0556 UTC 22 September 2019)
http://aviationweather.gov/metar/data/
 
DTTJ 220530Z 01010KT 330V060 7000 FEW016TCU BKN023 FEW030CB 27/24 Q1018
DTTJ 220500Z 32017KT 280V060 7000 BKN023 FEW030CB 27/24 Q1018
TAF DTTJ 212300Z 2200/2224 10008KT 9999 FEW026 

 AIRPORT MAP

 RUNWAY INFORMATION
Runway 09 Runway length 10171 ft Runway width 148 ft
Runway elevation 9 ft Runway displaced threshold 0 ft Runway heading 88
Runway 27 Runway length 10171 ft Runway width 148 ft
Runway elevation 18 ft Runway displaced threshold 0 ft Runway heading 268

 AIRPORT FREQUENCIES
Type APP Name DJERBA APP Frequency 120.3 MHZ
Type TWR Name DJERBA TWR Frequency 118.15 MHZ

 AIRPORT NEAR NAVIGATION AIDS
Type VOR-DME Name Djerba Frequency 112200 KHZ